Latest Weather Observations for Adelaide Airport

IDS60801

Issued at 9:31 am CST Monday 31 August 2015 (issued every 30 minutes, with the page automatically refreshed every 10 minutes)

About weather observations | Map of weather stations | Latest weather observations for SA | Other Formats
Station Details ID: 023034 Name: ADELAIDE AIRPORT Lat: -34.95 Lon: 138.52 Height: 2.0 m
Data from the previous 72 hours. | See also: Recent months at Adelaide Airport
Date/Time
CST
Temp
°C
App
Temp
°C
Dew
Point
Rel
Hum
%
Delta-T
°C
Wind Press
QNH
hPa
Press
MSL
hPa
Rain
since 9 am
mm
Dir
 
Spd
km/h
Gust
km/h
Spd
kts
Gust
kts
31/09:00am 14.2 9.3 1.7 42 5.4 NNE 17 20 9 11 1021.1 1021.1 0.0
31/08:30am 11.4 10.1 4.0 60 3.3 CALM 0 7 0 4 1021.0 1021.0 0.0
31/08:00am 8.3 5.7 4.4 76 1.7 ENE 7 7 4 4 1021.1 1021.1 0.0
31/07:30am 5.7 4.3 3.3 84 1.0 CALM 0 0 0 0 1021.1 1021.1 0.0
31/07:00am 4.2 1.4 2.2 87 0.8 SE 6 7 3 4 1020.9 1020.9 0.0
31/06:30am 3.1 0.0 1.5 89 0.6 SE 7 9 4 5 1020.8 1020.8 0.0
31/06:00am 3.4 1.7 1.9 90 0.6 CALM 0 0 0 0 1020.8 1020.8 0.0
31/05:30am 3.2 1.1 1.4 88 0.7 SE 2 7 1 4 1020.9 1020.9 0.0
31/05:00am 4.0 2.3 1.7 85 0.9 CALM 0 0 0 0 1020.8 1020.8 0.0
31/04:30am 4.0 2.3 2.0 87 0.8 CALM 0 0 0 0 1020.8 1020.8 0.0
31/04:00am 4.7 3.1 2.5 86 0.9 CALM 0 0 0 0 1020.8 1020.8 0.0
31/03:30am 4.7 1.4 2.5 86 0.9 E 9 9 5 5 1020.9 1020.9 0.0
31/03:00am 4.8 1.8 1.8 81 1.2 NE 7 9 4 5 1021.1 1021.1 0.0
31/02:30am 5.9 2.5 1.6 74 1.7 NE 9 11 5 6 1021.3 1021.3 0.0
31/02:00am 5.2 3.3 2.7 84 1.0 NE 2 6 1 3 1021.6 1021.6 0.0
31/01:30am 4.7 2.0 2.7 87 0.8 ENE 6 7 3 4 1021.8 1021.8 0.0
31/01:00am 5.1 2.2 2.4 83 1.1 NE 7 7 4 4 1022.2 1022.2 0.0
31/12:30am 6.9 5.4 3.1 77 1.6 CALM 0 0 0 0 1022.4 1022.4 0.0
31/12:00am 7.1 4.2 2.8 74 1.8 ESE 7 7 4 4 1022.2 1022.2 0.0
 
Date/Time
CST
Temp
°C
App
Temp
°C
Dew
Point
Rel
Hum
%
Delta-T
°C
Wind Press
QNH
hPa
Press
MSL
hPa
Rain
since 9 am
mm
Dir
 
Spd
km/h
Gust
km/h
Spd
kts
Gust
kts
30/11:30pm 7.2 4.6 3.1 75 1.7 E 6 7 3 4 1022.1 1022.1 0.0
30/11:00pm 8.1 5.3 3.1 71 2.1 E 7 9 4 5 1022.3 1022.3 0.0
30/10:30pm 8.0 4.9 3.8 75 1.8 ESE 9 9 5 5 1022.7 1022.7 0.0
30/10:00pm 8.5 5.7 3.3 70 2.2 ESE 7 7 4 4 1023.0 1023.0 0.0
30/09:30pm 9.2 6.8 4.2 71 2.2 E 6 7 3 4 1023.0 1023.0 0.0
30/09:00pm 9.1 6.1 4.0 70 2.2 E 9 11 5 6 1023.1 1023.1 0.0
30/08:30pm 9.2 6.4 3.1 65 2.6 E 7 9 4 5 1023.3 1023.3 0.0
30/08:00pm 9.9 6.8 3.7 65 2.7 E 9 9 5 5 1023.2 1023.2 0.0
30/07:30pm 9.6 6.8 3.3 65 2.7 ESE 7 9 4 5 1023.0 1023.0 0.0
30/07:00pm 10.7 7.1 2.8 58 3.4 SE 11 13 6 7 1023.1 1023.1 0.0
30/06:30pm 12.5 9.5 1.7 47 4.6 S 7 9 4 5 1023.1 1023.1 0.0
30/06:00pm 12.0 8.8 2.8 53 4.0 SSE 9 11 5 6 1022.9 1022.9 0.0
30/05:30pm 13.2 9.4 1.8 46 4.9 S 11 15 6 8 1022.8 1022.8 0.0
30/05:00pm 13.4 9.6 4.1 53 4.2 SSW 13 19 7 10 1022.7 1022.7 0.0
30/04:30pm 13.8 9.2 3.6 50 4.6 SW 17 20 9 11 1022.6 1022.6 0.0
30/04:00pm 14.3 9.8 4.3 51 4.6 SW 17 20 9 11 1022.8 1022.8 0.0
30/03:30pm 14.2 9.3 1.7 42 5.4 SW 17 19 9 10 1022.9 1022.9 0.0
30/03:00pm 14.3 10.0 3.4 48 4.9 SW 15 20 8 11 1023.0 1023.0 0.0
30/02:30pm 14.4 10.6 4.1 50 4.7 SW 13 19 7 10 1023.2 1023.2 0.0
30/02:00pm 14.6 10.2 4.9 52 4.5 SSW 17 22 9 12 1023.5 1023.5 0.0
30/01:30pm 14.4 9.2 3.8 49 4.8 SW 20 30 11 16 1024.0 1024.0 0.0
30/01:00pm 15.0 9.9 2.9 44 5.4 W 19 22 10 12 1024.3 1024.3 0.0
30/12:30pm 15.3 10.7 3.7 46 5.3 W 17 24 9 13 1024.8 1024.8 0.0
30/12:00pm 14.4 10.6 3.8 49 4.8 WSW 13 19 7 10 1025.1 1025.1 0.0
30/11:30am 15.4 11.5 1.3 38 6.1 NNE 11 19 6 10 1025.5 1025.5 0.0
30/11:00am 15.2 11.6 0.7 37 6.2 NNE 9 19 5 10 1025.8 1025.8 0.0
30/10:30am 15.0 9.8 0.3 36 6.2 NNE 17 24 9 13 1025.9 1025.9 0.0
30/10:00am 14.7 9.6 0.9 39 5.9 ENE 17 20 9 11 1026.1 1026.1 0.0
30/09:30am 13.4 9.3 0.1 40 5.5 NE 11 15 6 8 1026.3 1026.3 0.0
30/09:00am 12.6 7.9 0.9 44 4.9 NNE 15 19 8 10 1026.5 1026.5 0.0
30/08:30am 11.7 7.9 1.5 49 4.3 NE 11 15 6 8 1026.6 1026.6 0.0
30/08:00am 10.1 6.3 2.0 57 3.4 NNE 11 13 6 7 1026.6 1026.6 0.0
30/07:30am 7.5 5.9 2.4 70 2.1 CALM 0 0 0 0 1026.5 1026.5 0.0
30/07:00am 7.0 2.8 1.5 68 2.2 ENE 13 15 7 8 1026.4 1026.4 0.0
30/06:30am 6.7 2.5 1.4 69 2.1 ENE 13 15 7 8 1026.1 1026.1 0.0
30/06:00am 6.6 2.4 1.6 70 2.0 ENE 13 15 7 8 1025.8 1025.8 0.0
30/05:30am 6.5 1.9 1.8 72 1.9 ENE 15 17 8 9 1025.6 1025.6 0.0
30/05:00am 6.3 1.7 1.8 73 1.8 ENE 15 19 8 10 1025.6 1025.6 0.0
30/04:30am 6.5 1.9 1.5 70 2.0 ENE 15 19 8 10 1025.5 1025.5 0.0
30/04:00am 7.2 2.2 1.5 67 2.3 E 17 24 9 13 1025.4 1025.4 0.0
30/03:30am 8.7 4.2 2.2 63 2.7 E 15 19 8 10 1025.9 1025.9 0.0
30/03:00am 9.1 5.3 1.8 60 3.0 ENE 11 13 6 7 1026.2 1026.2 0.0
30/02:30am 8.1 5.7 2.3 67 2.4 E 4 7 2 4 1026.4 1026.4 0.0
30/02:00am 8.3 6.6 1.7 63 2.7 CALM 0 0 0 0 1026.8 1026.8 0.0
30/01:30am 7.8 6.0 1.3 63 2.6 CALM 0 0 0 0 1027.0 1027.0 0.0
30/01:00am 6.5 4.7 0.9 67 2.2 CALM 0 0 0 0 1027.3 1027.3 0.0
30/12:30am 7.5 5.5 0.0 59 2.9 CALM 0 0 0 0 1027.4 1027.4 0.0
30/12:00am 8.2 5.6 1.0 60 2.9 ENE 4 6 2 3 1027.3 1027.3 0.0
 
Date/Time
CST
Temp
°C
App
Temp
°C
Dew
Point
Rel
Hum
%
Delta-T
°C
Wind Press
QNH
hPa
Press
MSL
hPa
Rain
since 9 am
mm
Dir
 
Spd
km/h
Gust
km/h
Spd
kts
Gust
kts
29/11:30pm 7.2 3.4 1.8 68 2.2 ESE 11 13 6 7 1027.3 1027.3 0.0
29/11:00pm 7.3 3.5 1.9 68 2.2 ESE 11 13 6 7 1027.5 1027.5 0.0
29/10:30pm 7.4 3.6 1.7 67 2.3 ESE 11 13 6 7 1027.7 1027.7 0.0
29/10:00pm 8.6 5.6 1.8 62 2.8 ESE 7 9 4 5 1027.9 1027.9 0.0
29/09:30pm 7.7 3.9 1.8 66 2.4 SE 11 15 6 8 1027.8 1027.8 0.0
29/09:00pm 7.4 3.6 2.0 68 2.2 SE 11 15 6 8 1027.8 1027.8 0.0
29/08:30pm 8.3 5.4 2.5 67 2.4 ESE 7 9 4 5 1027.7 1027.7 0.0
29/08:00pm 8.4 4.4 2.9 68 2.3 ESE 13 17 7 9 1027.4 1027.4 0.0
29/07:30pm 9.0 4.7 3.1 66 2.5 ESE 15 20 8 11 1027.3 1027.3 0.0
29/07:00pm 9.8 5.8 3.0 62 2.9 ESE 13 17 7 9 1027.2 1027.2 0.0
29/06:30pm 10.4 6.0 2.7 59 3.3 ESE 15 22 8 12 1027.0 1027.0 0.0
29/06:00pm 10.6 7.1 3.5 61 3.1 SE 11 13 6 7 1026.7 1026.7 0.0
29/05:30pm 12.1 7.3 2.6 52 4.1 ESE 17 24 9 13 1026.5 1026.5 0.0
29/05:00pm 13.2 8.5 3.3 51 4.4 ESE 17 20 9 11 1026.2 1026.2 0.0
29/04:30pm 13.5 8.8 3.4 50 4.5 ESE 17 20 9 11 1026.2 1026.2 0.0
29/04:00pm 13.8 8.8 3.5 50 4.6 SE 19 26 10 14 1026.1 1026.1 0.0
29/03:30pm 14.0 10.4 3.2 48 4.8 SSE 11 28 6 15 1026.1 1026.1 0.0
29/03:00pm 13.6 9.9 2.4 46 4.9 S 11 17 6 9 1026.4 1026.4 0.0
29/02:30pm 13.8 9.3 2.3 45 5.0 SSW 15 22 8 12 1026.7 1026.7 0.0
29/02:00pm 13.9 9.1 2.5 46 5.0 SW 17 24 9 13 1026.8 1026.8 0.0
29/01:30pm 14.0 10.3 2.6 46 5.0 SSW 11 19 6 10 1026.9 1026.9 0.0
29/01:00pm 14.1 10.7 1.9 43 5.3 SSE 9 13 5 7 1027.2 1027.2 0.0
29/12:30pm 13.7 9.9 1.9 44 5.1 SSE 11 17 6 9 1027.8 1027.8 0.0
29/12:00pm 14.3 11.2 3.7 49 4.8 S 9 17 5 9 1028.2 1028.2 0.0
29/11:30am 13.7 10.2 3.4 50 4.6 SSE 11 15 6 8 1028.7 1028.7 0.0
29/11:00am 13.5 10.0 3.7 51 4.4 SE 11 15 6 8 1028.8 1028.8 0.0
29/10:30am 13.1 8.6 4.2 54 4.0 ESE 17 24 9 13 1028.9 1028.9 0.0
29/10:00am 12.8 9.1 4.4 56 3.8 E 13 19 7 10 1028.9 1028.9 0.0
29/09:30am 11.7 7.8 5.4 65 2.9 ESE 15 20 8 11 1029.0 1029.0 0.0
29/09:00am 11.8 7.6 5.5 65 2.9 ESE 17 20 9 11 1028.9 1028.9 0.0
29/08:30am 10.9 6.9 6.6 75 2.0 ESE 17 20 9 11 1028.8 1028.8 0.0
29/08:00am 10.9 8.2 7.3 78 1.7 SE 11 15 6 8 1028.6 1028.6 0.0
29/07:30am 10.1 7.4 7.3 83 1.3 SE 11 15 6 8 1028.2 1028.2 0.0
29/07:00am 9.6 6.4 6.8 83 1.3 SE 13 19 7 10 1028.0 1028.0 0.0
29/06:30am 8.2 6.9 6.2 87 0.9 S 2 9 1 5 1027.7 1027.7 0.0
29/06:00am 7.4 6.4 5.8 90 0.7 CALM 0 0 0 0 1027.5 1027.5 0.0
29/05:30am 7.0 6.0 5.4 89 0.7 CALM 0 0 0 0 1027.4 1027.4 0.0
29/05:00am 7.4 6.4 5.4 87 0.9 CALM 0 0 0 0 1027.2 1027.2 0.0
29/04:30am 6.6 5.4 4.7 88 0.8 CALM 0 0 0 0 1027.3 1027.3 0.0
29/04:00am 6.3 4.3 4.4 88 0.8 ENE 4 7 2 4 1027.4 1027.4 0.0
29/03:30am 5.8 4.0 3.6 86 0.9 ENE 2 7 1 4 1027.6 1027.6 0.0
29/03:00am 4.6 1.9 2.9 89 0.7 ENE 6 7 3 4 1027.9 1027.9 0.0
29/02:30am 4.7 2.9 3.2 90 0.6 E 2 7 1 4 1028.0 1028.0 0.0
29/02:00am 5.0 3.1 2.8 86 0.9 SSW 2 7 1 4 1028.2 1028.2 0.0
29/01:30am 4.8 3.3 2.8 87 0.8 CALM 0 0 0 0 1028.5 1028.5 0.0
29/01:00am 4.8 3.0 3.3 90 0.6 S 2 7 1 4 1028.7 1028.7 0.0
29/12:30am 5.0 3.6 3.3 89 0.7 CALM 0 0 0 0 1028.6 1028.6 0.0
29/12:00am 4.8 3.2 2.6 86 0.9 CALM 0 0 0 0 1028.5 1028.5 0.0
 
Date/Time
CST
Temp
°C
App
Temp
°C
Dew
Point
Rel
Hum
%
Delta-T
°C
Wind Press
QNH
hPa
Press
MSL
hPa
Rain
since 9 am
mm
Dir
 
Spd
km/h
Gust
km/h
Spd
kts
Gust
kts
28/11:30pm 5.5 4.0 3.1 84 1.0 CALM 0 0 0 0 1028.6 1028.6 0.0
28/11:00pm 6.4 3.9 3.5 82 1.2 SE 6 7 3 4 1028.7 1028.7 0.0
28/10:30pm 6.8 4.1 3.5 79 1.4 SE 7 9 4 5 1028.9 1028.9 0.0
28/10:00pm 7.2 4.6 3.1 75 1.7 SSE 6 9 3 5 1029.0 1029.0 0.0
28/09:30pm 7.0 4.2 3.2 77 1.6 SSE 7 9 4 5 1028.8 1028.8 0.0
28/09:00pm 8.0 4.8 3.0 71 2.1 SE 9 11 5 6 1028.8 1028.8 0.0
28/08:30pm 8.2 4.2 3.0 70 2.2 SE 13 20 7 11 1028.6 1028.6 0.0
28/08:00pm 8.7 5.5 3.3 69 2.3 SSE 9 9 5 5 1028.3 1028.3 0.0
28/07:30pm 8.8 5.6 3.1 67 2.4 SSE 9 11 5 6 1028.3 1028.3 0.0
28/07:00pm 9.9 6.3 2.9 62 3.0 SSE 11 15 6 8 1028.1 1028.1 0.0
28/06:30pm 10.4 6.4 2.6 58 3.3 SSE 13 15 7 8 1027.8 1027.8 0.0
28/06:00pm 11.5 6.7 2.7 54 3.8 SSE 17 24 9 13 1027.5 1027.5 0.0
28/05:30pm 12.6 7.4 2.7 51 4.3 SSE 19 26 10 14 1027.4 1027.4 0.0
28/05:00pm 13.3 8.8 4.0 53 4.2 SE 17 24 9 13 1027.3 1027.3 0.0
28/04:30pm 13.3 8.9 4.5 55 4.0 S 17 24 9 13 1027.3 1027.3 0.0
28/04:00pm 13.3 8.6 5.3 58 3.7 S 19 30 10 16 1027.2 1027.2 0.0
28/03:30pm 13.2 8.6 5.5 59 3.6 SW 19 26 10 14 1027.3 1027.3 0.0
28/03:00pm 13.7 10.2 5.3 57 3.9 SSE 13 19 7 10 1027.6 1027.6 0.0
28/02:30pm 13.1 8.5 5.6 60 3.5 SSE 19 26 10 14 1027.6 1027.6 0.0
28/02:00pm 13.8 9.9 5.4 57 3.9 SW 15 20 8 11 1027.8 1027.8 0.0
28/01:30pm 13.4 9.3 6.0 61 3.5 SW 17 20 9 11 1027.9 1027.9 0.0
28/01:00pm 13.8 10.6 6.7 62 3.4 SE 13 17 7 9 1028.2 1028.2 0.0
28/12:30pm 13.7 9.9 5.6 58 3.8 SSE 15 19 8 10 1028.7 1028.7 0.0
28/12:00pm 13.7 10.0 6.3 61 3.5 S 15 24 8 13 1029.1 1029.1 0.0
28/11:30am 13.4 10.2 4.9 56 3.9 SSE 11 17 6 9 1029.5 1029.5 0.0
28/11:00am 12.7 10.4 7.3 69 2.6 S 9 11 5 6 1029.8 1029.8 0.0
28/10:30am 13.1 10.6 6.6 64 3.1 SE 9 15 5 8 1029.9 1029.9 0.0
28/10:00am 12.6 9.6 7.6 71 2.4 SE 13 17 7 9 1030.0 1030.0 0.0

Other Formats:

Comma delimited format used in spreadsheet applications
http://www.bom.gov.au/fwo/IDS60801/IDS60801.94672.axf

JavaScript Object Notation format (JSON) in row-major order
http://www.bom.gov.au/fwo/IDS60801/IDS60801.94672.json